TimeEDT,TemperatureF,Dew PointF,Humidity,Sea Level PressureIn,VisibilityMPH,Wind Direction,Wind SpeedMPH,Gust SpeedMPH,PrecipitationIn,Events,Conditions,WindDirDegrees,DateUTC
12:53 AM,52.0,50.0,93,30.01,4.0,Calm,Calm,-,N/A,,Clear,0,2013-10-02 04:53:00
1:53 AM,50.0,48.9,96,30.01,4.0,Calm,Calm,-,N/A,,Clear,0,2013-10-02 05:53:00
2:53 AM,50.0,48.0,93,30.01,3.0,Calm,Calm,-,N/A,,Clear,0,2013-10-02 06:53:00
3:53 AM,48.9,46.9,93,30.01,4.0,Calm,Calm,-,N/A,,Clear,0,2013-10-02 07:53:00
4:53 AM,48.0,46.9,96,30.01,4.0,Calm,Calm,-,N/A,,Clear,0,2013-10-02 08:53:00
5:48 AM,46.4,46.4,100,30.02,4.0,Calm,Calm,-,N/A,,Scattered Clouds,0,2013-10-02 09:48:00
5:53 AM,46.9,45.0,93,30.02,5.0,Calm,Calm,-,N/A,,Mostly Cloudy,0,2013-10-02 09:53:00
6:28 AM,48.2,46.4,93,30.03,1.8,Calm,Calm,-,N/A,,Overcast,0,2013-10-02 10:28:00
6:30 AM,48.2,46.4,93,30.03,0.8,Calm,Calm,-,N/A,,Mist,0,2013-10-02 10:30:00
6:53 AM,48.9,48.0,97,30.04,0.2,Calm,Calm,-,N/A,Fog,Fog,0,2013-10-02 10:53:00
7:53 AM,51.1,50.0,96,30.05,0.2,Calm,Calm,-,N/A,Fog,Fog,0,2013-10-02 11:53:00
8:53 AM,55.0,54.0,96,30.06,0.2,Calm,Calm,-,N/A,Fog,Fog,0,2013-10-02 12:53:00
9:07 AM,55.4,55.4,100,30.06,1.5,Calm,Calm,-,N/A,,Mostly Cloudy,0,2013-10-02 13:07:00
9:12 AM,55.4,55.4,100,30.06,3.0,Calm,Calm,-,N/A,,Mostly Cloudy,0,2013-10-02 13:12:00
9:19 AM,57.2,55.4,94,30.06,4.0,Calm,Calm,-,N/A,,Scattered Clouds,0,2013-10-02 13:19:00
9:53 AM,60.1,57.0,90,30.07,7.0,Calm,Calm,-,N/A,,Clear,0,2013-10-02 13:53:00
10:53 AM,73.0,60.1,64,30.05,10.0,Variable,3.5,-,N/A,,Clear,0,2013-10-02 14:53:00
11:53 AM,77.0,62.1,60,30.04,10.0,Variable,3.5,-,N/A,,Scattered Clouds,0,2013-10-02 15:53:00
12:53 PM,82.0,60.1,47,30.02,10.0,Variable,5.8,-,N/A,,Unknown,0,2013-10-02 16:53:00
1:53 PM,82.0,59.0,45,30.01,10.0,WNW,4.6,-,N/A,,Partly Cloudy,300,2013-10-02 17:53:00
2:53 PM,84.9,57.9,40,29.99,10.0,WNW,8.1,-,N/A,,Partly Cloudy,300,2013-10-02 18:53:00
3:53 PM,84.0,59.0,43,29.98,10.0,WNW,8.1,-,N/A,,Mostly Cloudy,300,2013-10-02 19:53:00
4:53 PM,82.9,57.9,42,29.98,10.0,NW,5.8,-,N/A,,Scattered Clouds,310,2013-10-02 20:53:00
5:53 PM,79.0,59.0,50,29.99,10.0,West,4.6,-,N/A,,Partly Cloudy,280,2013-10-02 21:53:00
6:53 PM,70.0,62.1,76,30.00,10.0,Calm,Calm,-,N/A,,Clear,0,2013-10-02 22:53:00
7:53 PM,64.0,61.0,90,30.01,8.0,Calm,Calm,-,N/A,,Clear,0,2013-10-02 23:53:00
8:53 PM,61.0,59.0,93,30.03,6.0,Calm,Calm,-,N/A,,Clear,0,2013-10-03 00:53:00
9:53 PM,61.0,59.0,93,30.04,7.0,Calm,Calm,-,N/A,,Clear,0,2013-10-03 01:53:00
10:53 PM,57.9,55.9,93,30.05,4.0,Calm,Calm,-,N/A,,Clear,0,2013-10-03 02:53:00
11:53 PM,57.0,55.0,93,30.06,4.0,Calm,Calm,-,N/A,,Clear,0,2013-10-03 03:53:00